Overview Statistics Trail Chart Weather Telemetry Raw packets
 

This is the latest recevied weather packets stored in our database for station/object W4UWO. If no packets are shown the sender has not sent any weather packets the latest 10 day(s).

<< 1 2 3 4 5 >>
Time Temp. Humidity Pressure Rain* Wind** Luminosity Snow
1788626467 35.56° C 52% 1015.5 hPa 0 mm - 758 W/m² -
1788626163 35° C 54% 1015.4 hPa 0 mm - 744 W/m² -
1788625860 34.44° C 53% 1015.6 hPa 0 mm - 738 W/m² -
1788625555 33.89° C 55% 1015.6 hPa 0 mm - 732 W/m² -
1788625254 34.44° C 54% 1015.7 hPa 0 mm - 723 W/m² -
1788624949 33.89° C 54% 1015.6 hPa 0 mm - 714 W/m² -
1788624647 33.89° C 54% 1015.8 hPa 0 mm - 705 W/m² -
1788624346 33.89° C 58% 1015.8 hPa 0 mm - 691 W/m² -
1788624046 33.89° C 55% 1016 hPa 0 mm - 679 W/m² -
1788623746 33.33° C 57% 1016 hPa 0 mm - 671 W/m² -
1788623444 33.33° C 57% 1015.9 hPa 0 mm - 655 W/m² -
1788623139 32.78° C 57% 1016.1 hPa 0 mm - 648 W/m² -
1788622835 32.78° C 58% 1016 hPa 0 mm - 635 W/m² -
1788622531 32.22° C 60% 1016.2 hPa 0 mm - 620 W/m² -
1788622230 31.67° C 63% 1016.5 hPa 0 mm - 612 W/m² -
1788621925 31.67° C 63% 1016.1 hPa 0 mm - 606 W/m² -
1788621621 31.11° C 64% 1016.1 hPa 0 mm - 592 W/m² -
1788621316 31.11° C 65% 1016.1 hPa 0 mm - 579 W/m² -
1788621011 30.56° C 68% 1016.4 hPa 0 mm - 564 W/m² -
1788620712 29.44° C 70% 1016.6 hPa 0 mm - 560 W/m² -
1788620403 28.89° C 75% 1016 hPa 0 mm - 552 W/m² -
1788620098 28.33° C 76% 1016.2 hPa 0 mm - 208 W/m² -
1788619796 27.78° C 79% 1016.4 hPa 0 mm - 189 W/m² -
1788619492 27.78° C 80% 1016.2 hPa 0 mm - 142 W/m² -
1788619191 27.22° C 80% 1016.5 hPa 0 mm - 144 W/m² -

* Rain latest hour (hover to see other rain measurements)
** Current wind speed in m/s (hover to see current wind gust speed)